Vancouver, WA
on Monday, February 25, 2013

Monday
Previous Day Next Day
Daily Summary
 ActualAverageRecord
Temperature
Mean Temperature °F 45°F  
Max Temperature 50°F 54°F 66°F (1905)
Min Temperature 34°F 36°F 21°F (2011)
Degree Days
Heating Degree Days 23    
Month to date heating degree days 553  
Since 1 July heating degree days 2976  
Cooling Degree Days 0    
Month to date cooling degree days 0  
Year to date cooling degree days 0  
Moisture
Dew Point 36°F   
Average Humidity 74    
Maximum Humidity 92    
Minimum Humidity 56    
Precipitation
Precipitation 0.09 in 0.14 in 1.14 in (1940)
Month to date precipitation 0.89 3.55  
Year to date precipitation 4.29 9.05  
Snow
Snow 0.00 in in in ()
Month to date snowfall 0.0  
Snow Depth 0.00 in   
Wind
Wind Speed 6 mph   
Max Wind Speed 20 mph   
Max Gust Speed 25 mph   
Visibility 10 miles   
Events Rain   

Key: T is trace of precipitation, MM is missing value
Source: NWS Daily Summary
Time(PST)TemperatureDew PointHumidity Pressure Visibility Wind DirectionWind SpeedGust SpeedPrecipitationEvents Conditions
12:53 AM 46.9°F 34.0°F 61% 30.04 in 10.0 miles South 10.4 mph 18.4 mph 0.00 in Rain Light Rain
1:23 AM 46.4°F 35.6°F 66% 30.02 in 10.0 miles South 8.1 mph - 0.00 in Rain Light Rain
1:53 AM 46.0°F 37.0°F 71% 30.02 in 10.0 miles South 8.1 mph 20.7 mph 0.01 in Rain Light Rain
2:53 AM 44.1°F 39.0°F 82% 30.05 in 10.0 miles Variable 4.6 mph - 0.01 in   Overcast
3:32 AM 44.6°F 39.2°F 81% 30.07 in 10.0 miles Variable 3.5 mph - N/A   Overcast
3:38 AM 44.6°F 39.2°F 81% 30.08 in 10.0 miles Variable 3.5 mph - N/A   Overcast
3:45 AM 44.6°F 39.2°F 81% 30.08 in 10.0 miles Calm Calm - N/A   Overcast
3:53 AM 44.1°F 39.0°F 82% 30.09 in 10.0 miles SW 4.6 mph - N/A   Overcast
4:02 AM 44.6°F 39.2°F 81% 30.09 in 10.0 miles SW 6.9 mph - N/A   Overcast
4:09 AM 44.6°F 39.2°F 81% 30.10 in 9.0 miles WSW 5.8 mph - 0.01 in Rain Light Rain
4:38 AM 42.8°F 39.2°F 87% 30.11 in 10.0 miles SW 4.6 mph - 0.02 in   Overcast
4:53 AM 43.0°F 37.9°F 82% 30.12 in 10.0 miles WSW 5.8 mph - 0.02 in   Overcast
5:53 AM 43.0°F 37.9°F 82% 30.15 in 10.0 miles WSW 6.9 mph - 0.01 in   Overcast
6:13 AM 42.8°F 37.4°F 81% 30.16 in 8.0 miles West 8.1 mph - 0.02 in Rain Light Rain
6:23 AM 42.8°F 37.4°F 81% 30.16 in 10.0 miles West 8.1 mph - 0.02 in   Overcast
6:53 AM 41.0°F 36.0°F 82% 30.17 in 10.0 miles West 5.8 mph - 0.02 in Rain Light Rain
7:53 AM 42.1°F 37.0°F 82% 30.20 in 10.0 miles Calm Calm - 0.01 in   Overcast
8:53 AM 43.0°F 37.0°F 80% 30.21 in 10.0 miles SW 5.8 mph - 0.00 in   Overcast
10:53 AM 45.0°F 36.0°F 71% 30.24 in 10.0 miles SW 4.6 mph - N/A   Overcast
11:53 AM 46.9°F 37.0°F 68% 30.25 in 10.0 miles SW 6.9 mph - 0.00 in   Overcast
12:53 PM 48.9°F 33.1°F 54% 30.24 in 10.0 miles West 12.7 mph - N/A   Overcast
1:53 PM 50.0°F 37.0°F 61% 30.25 in 10.0 miles West 10.4 mph 23.0 mph 0.00 in   Mostly Cloudy
2:53 PM 48.0°F 32.0°F 54% 30.27 in 10.0 miles NW 11.5 mph 21.9 mph 0.00 in Rain Light Rain
3:53 PM 46.0°F 33.1°F 61% 30.29 in 10.0 miles WNW 11.5 mph - 0.00 in   Overcast
4:53 PM 43.0°F 36.0°F 76% 30.30 in 10.0 miles West 6.9 mph - 0.01 in   Overcast
5:53 PM 42.1°F 34.0°F 73% 30.31 in 10.0 miles WNW 8.1 mph - N/A   Mostly Cloudy
6:53 PM 41.0°F 34.0°F 76% 30.33 in 10.0 miles West 4.6 mph - N/A   Mostly Cloudy
7:53 PM 39.0°F 34.0°F 82% 30.35 in 10.0 miles Calm Calm - N/A   Partly Cloudy
8:53 PM 36.0°F 32.0°F 86% 30.36 in 10.0 miles Calm Calm - N/A   Scattered Clouds
9:53 PM 36.0°F 33.1°F 89% 30.38 in 10.0 miles Calm Calm - N/A   Partly Cloudy
10:53 PM 37.9°F 34.0°F 86% 30.38 in 10.0 miles Calm Calm - N/A   Overcast
11:53 PM 39.9°F 35.1°F 83% 30.40 in 10.0 miles Calm Calm - N/A   Overcast
Moon Phase
Feb. 25 Feb. 25 Mar. 04 Mar. 11 Mar. 19
Sunrise:06:55 AM (PST) Moon Rise:06:15 PM (PST)2/25
Sunset:05:52 PM (PST) Moon Set:06:26 AM (PST)2/25

Copyright © 2014 The Weather Underground, Inc.